[[{"header":{"parameterUnit":"m.s-1","parameterCategory":1,"la1":30.2991,"la2":30.254,"lo1":-89.0895,"lo2":-89.0444,"dy":0.0017,"dx":0.0017,"nx":28,"ny":28,"refTime":"2025-04-26T03:00:00:Z","depth":0,"parameterNumber":2,"parameterNumberName":"U-component_of_WINDS"},"data":[0,0,0,0,0,0,0,0,0,0,0,0,0,0,0,0,0,0,0,0,0,0,0,0,0,0,0,0,0,0,0,0,0,0,0,0,0,0,0,0,0,0,0,0,0,0,0,0,0,0,0,0,0,0,0,0,0,0,0.1129,0.1129,0,0.1156,0.1157,0.1157,0.1182,0.1183,0.1183,0.1183,0.121,0.1211,0.1211,0,0,0,0,0,0,0,0,0,0,0,0,0,0.1099,0.11,0.1129,0.1129,0.113,0.1156,0.1157,0.1157,0.1182,0.1183,0.1183,0.1183,0.121,0.1211,0.1211,0,0,0,0,0,0,0,0,0,0,0,0,0,0.1118,0.11,0.1129,0.1145,0.1147,0.1156,0.1157,0.1157,0.1182,0.1183,0.1183,0.1183,0.121,0.1211,0.1211,0.1206,0,0,0.1213,0.1213,0,0,0,0,0,0,0,0,0.1117,0.1119,0.1143,0.1144,0.1146,0.1166,0.1156,0.1173,0.1182,0.1169,0.1183,0.1184,0.1195,0.1197,0.1201,0.1207,0.1208,0.1213,0.1214,0.1214,0.1214,0,0,0,0,0,0,0,0.1115,0.1118,0.114,0.1143,0.1145,0.1152,0.1155,0.1159,0.1179,0.117,0.1172,0.1175,0.1196,0.12,0.1202,0.1209,0.1213,0.1214,0.1214,0.1214,0.1213,0.1213,0,0,0,0,0,0,0.1112,0.1117,0.1139,0.1141,0.1132,0.1152,0.1155,0.1159,0.1179,0.1182,0.1174,0.1176,0.1199,0.1201,0.1203,0.1199,0.1214,0.1214,0.1215,0.1214,0.1213,0.1213,0,0,0,0,0,0,0.1111,0.1113,0.1138,0.1129,0.1133,0.1152,0.1156,0.116,0.1164,0.1182,0.1186,0.1175,0.12,0.1202,0.1205,0.12,0.1215,0.1215,0.1214,0.1213,0.1213,0.119,0,0,0,0,0,0,0.111,0.1113,0.1111,0.1129,0.1133,0.1139,0.1156,0.116,0.1165,0.1167,0.1184,0.1187,0.12,0.1204,0.1206,0.1201,0.1216,0.1215,0.1214,0.1213,0.1191,0.1189,0.1186,0,0,0,0,0,0.1109,0.1103,0.1111,0.1113,0.1131,0.1139,0.1141,0.1157,0.1164,0.1163,0.1175,0.1187,0.1201,0.1204,0.1206,0.1202,0.1215,0.1214,0.1213,0.1192,0.1189,0.1187,0,0,0,0,0,0,0.1083,0.1105,0.1114,0.1114,0.1124,0.1143,0.1141,0.1153,0.1161,0.1163,0.1181,0.1185,0.1186,0.1194,0.1198,0.1199,0.1209,0.1209,0.1193,0.119,0.1188,0.1186,0.1216,0,0,0,0,0,0.1077,0.1082,0.1101,0.1099,0.1104,0.1122,0.1126,0.1137,0.1149,0.1153,0.1165,0.1176,0.1183,0.1187,0.1194,0.1193,0.1197,0.1191,0.1189,0.1187,0.1186,0.1187,0.1185,0.121,0.121,0.121,0,0,0.1065,0.1078,0.108,0.1094,0.1104,0.1109,0.1125,0.1129,0.1133,0.1153,0.1158,0.1167,0.118,0.1182,0.1183,0.1189,0.118,0.1185,0.1184,0.1184,0.1186,0.1183,0.1181,0.1209,0.1209,0.1209,0,0,0.1046,0.1056,0.1056,0.1066,0.108,0.1092,0.1092,0.111,0.1117,0.1122,0.1138,0.1143,0.1154,0.1163,0.1169,0.1156,0.1167,0.1158,0.1145,0.1146,0.1144,0.1142,0.1138,0.1136,0.1157,0.1157,0.1157,0,0.1029,0.1037,0.1054,0.1058,0.1064,0.1084,0.1084,0.1093,0.1109,0.1113,0.1119,0.1135,0.1145,0.115,0.1146,0.115,0.1152,0.1155,0.1143,0.1141,0.114,0.1136,0.1135,0.1155,0.1156,0.1156,0.1156,0,0.1016,0.1022,0.102,0.1036,0.1042,0.1044,0.1062,0.1066,0.1077,0.1089,0.1094,0.1107,0.1118,0.112,0.113,0.1126,0.113,0.1139,0.115,0.1136,0.1133,0.1132,0.1154,0.1154,0.1155,0.1155,0,0,0.098,0.1007,0.1006,0.1014,0.1032,0.1037,0.104,0.1052,0.1056,0.1066,0.107,0.108,0.109,0.1096,0.1108,0.1109,0.1099,0.1119,0.1119,0.1115,0.1096,0.1089,0.1087,0.1107,0.1107,0.1106,0.1095,0,0.0965,0.0972,0.0988,0.0991,0.0996,0.1016,0.1019,0.1031,0.1042,0.1049,0.1062,0.1069,0.108,0.1085,0.1086,0.11,0.1095,0.1101,0.1111,0.1111,0.1107,0.1085,0.1078,0.1067,0.1094,0.1094,0.1094,0,0.0947,0.0957,0.096,0.098,0.0983,0.0985,0.0998,0.1004,0.1018,0.1027,0.1035,0.1049,0.1054,0.1065,0.1073,0.1076,0.1081,0.1089,0.1089,0.109,0.1101,0.1087,0.1063,0.1062,0.1092,0.1092,0.1092,0,0.0921,0.0936,0.094,0.0946,0.0969,0.097,0.098,0.0995,0.1001,0.1012,0.1016,0.1028,0.1034,0.1043,0.1059,0.1065,0.1066,0.1078,0.1073,0.1073,0.1072,0.1072,0.105,0.1075,0.1075,0.1075,0.1075,0,0.0902,0.0903,0.0929,0.0931,0.0934,0.0953,0.0955,0.0966,0.098,0.0985,0.1003,0.1007,0.1029,0.1036,0.1049,0.1055,0.1057,0.1065,0.1068,0.1063,0.1062,0.1067,0.1068,0.1075,0.1075,0.1075,0.1075,0,0.0873,0.0891,0.0897,0.0918,0.0923,0.0924,0.0943,0.0946,0.0959,0.0966,0.0969,0.0989,0.0999,0.1017,0.1031,0.104,0.1043,0.1049,0.1038,0.104,0.1035,0.1036,0.1015,0.1014,0.104,0.104,0.1039,0,0.086,0.0861,0.0883,0.0888,0.0897,0.0905,0.0912,0.0932,0.0938,0.0956,0.0957,0.0969,0.0979,0.0994,0.101,0.1022,0.1028,0.102,0.103,0.1026,0.1029,0.1029,0.1029,0.1018,0.1018,0.1017,0.1017,0,0.0834,0.0843,0.0852,0.0865,0.0873,0.0884,0.0896,0.0899,0.0922,0.0928,0.0939,0.0947,0.0963,0.0974,0.0988,0.0999,0.1012,0.1014,0.1014,0.1009,0.1003,0.1007,0.1032,0.1014,0.1014,0.1015,0.1015,0.1015,0.0813,0.0816,0.0832,0.0842,0.0854,0.0865,0.087,0.0884,0.0893,0.0908,0.0919,0.0929,0.0945,0.0966,0.0975,0.0984,0.099,0.0989,0.0989,0.0988,0.0987,0.1001,0.0986,0.0986,0.0987,0.0987,0.0987,0,0.0789,0.0801,0.081,0.0827,0.0835,0.0847,0.0861,0.0868,0.0876,0.089,0.09,0.0913,0.0925,0.0943,0.0956,0.0959,0.0966,0.0962,0.0962,0.0965,0.098,0.098,0.0957,0.0957,0.0957,0.0957,0.0957,0.0957,0.0777,0.0783,0.0794,0.0806,0.0818,0.0829,0.0836,0.0846,0.0858,0.0871,0.0881,0.0893,0.0909,0.0924,0.0935,0.094,0.0945,0.0939,0.0946,0.096,0.0963,0.0966,0.0965,0.094,0.094,0.093,0.0929,0.0929]},{"header":{"parameterUnit":"m.s-1","parameterCategory":1,"la1":30.2991,"la2":30.254,"lo1":-89.0895,"lo2":-89.0444,"dy":0.0017,"dx":0.0017,"nx":28,"ny":28,"refTime":"2025-04-26T03:00:00:Z","depth":0,"parameterNumber":3,"parameterNumberName":"V-component_of_WINDS"},"data":[0,0,0,0,0,0,0,0,0,0,0,0,0,0,0,0,0,0,0,0,0,0,0,0,0,0,0,0,0,0,0,0,0,0,0,0,0,0,0,0,0,0,0,0,0,0,0,0,0,0,0,0,0,0,0,0,0,0,-0.4141,-0.4141,0,-0.416,-0.416,-0.4161,-0.4167,-0.4167,-0.4167,-0.4167,-0.4188,-0.4188,-0.4189,0,0,0,0,0,0,0,0,0,0,0,0,0,-0.411,-0.4111,-0.414,-0.4141,-0.4141,-0.416,-0.416,-0.4161,-0.4167,-0.4167,-0.4167,-0.4167,-0.4188,-0.4188,-0.4189,0,0,0,0,0,0,0,0,0,0,0,0,0,-0.4126,-0.4111,-0.414,-0.4147,-0.4147,-0.416,-0.416,-0.4161,-0.4167,-0.4167,-0.4167,-0.4167,-0.4187,-0.4188,-0.4189,-0.4197,0,0,-0.4192,-0.4192,0,0,0,0,0,0,0,0,-0.4125,-0.4127,-0.4145,-0.4146,-0.4147,-0.4161,-0.4157,-0.4173,-0.4167,-0.416,-0.4167,-0.4167,-0.4179,-0.4181,-0.4185,-0.4198,-0.4199,-0.4192,-0.4193,-0.4193,-0.4193,0,0,0,0,0,0,0,-0.4124,-0.4126,-0.4148,-0.4146,-0.4147,-0.4149,-0.4151,-0.416,-0.417,-0.416,-0.4161,-0.4163,-0.4179,-0.4184,-0.4185,-0.42,-0.4192,-0.4193,-0.4193,-0.4194,-0.4222,-0.4222,0,0,0,0,0,0,-0.4122,-0.4125,-0.4148,-0.4149,-0.4135,-0.4149,-0.4152,-0.4157,-0.417,-0.4172,-0.4163,-0.4163,-0.4182,-0.4184,-0.4186,-0.4197,-0.4193,-0.4194,-0.4194,-0.4222,-0.4222,-0.4222,0,0,0,0,0,0,-0.4121,-0.4124,-0.4147,-0.4137,-0.414,-0.415,-0.4156,-0.4157,-0.4161,-0.4172,-0.4174,-0.4166,-0.4182,-0.4185,-0.4195,-0.4198,-0.4194,-0.4195,-0.4222,-0.4222,-0.4222,-0.4218,0,0,0,0,0,0,-0.412,-0.4123,-0.4126,-0.4137,-0.4141,-0.4155,-0.4156,-0.4158,-0.4163,-0.4163,-0.4175,-0.4176,-0.4182,-0.4193,-0.4196,-0.4199,-0.4196,-0.4221,-0.4222,-0.4222,-0.4218,-0.4219,-0.4219,0,0,0,0,0,-0.4119,-0.4124,-0.4126,-0.4129,-0.4144,-0.4155,-0.4157,-0.4163,-0.4163,-0.4166,-0.4173,-0.4176,-0.4197,-0.4194,-0.4197,-0.42,-0.4221,-0.4222,-0.4222,-0.4218,-0.4218,-0.4219,0,0,0,0,0,0,-0.4113,-0.4126,-0.4128,-0.4137,-0.4145,-0.4156,-0.416,-0.4163,-0.4171,-0.4172,-0.4179,-0.4182,-0.4191,-0.4197,-0.4194,-0.421,-0.4209,-0.421,-0.4205,-0.4206,-0.4206,-0.4204,-0.4197,0,0,0,0,0,-0.4113,-0.412,-0.4131,-0.4138,-0.4141,-0.415,-0.4155,-0.4159,-0.4168,-0.4171,-0.4179,-0.4187,-0.4196,-0.4201,-0.421,-0.4219,-0.4222,-0.4223,-0.4224,-0.4224,-0.4224,-0.4231,-0.4231,-0.4224,-0.4224,-0.4224,0,0,-0.4112,-0.412,-0.4124,-0.4137,-0.4143,-0.4151,-0.4153,-0.4161,-0.4167,-0.4172,-0.4182,-0.4188,-0.4198,-0.4208,-0.4213,-0.4213,-0.4227,-0.4224,-0.4224,-0.4225,-0.4231,-0.4232,-0.4233,-0.4224,-0.4224,-0.4224,0,0,-0.4115,-0.4122,-0.4129,-0.4135,-0.4145,-0.4151,-0.4153,-0.4164,-0.4168,-0.4178,-0.4183,-0.419,-0.4205,-0.4212,-0.4217,-0.4224,-0.4228,-0.4227,-0.4228,-0.4234,-0.4235,-0.4235,-0.4238,-0.4239,-0.4228,-0.4228,-0.4228,0,-0.4113,-0.4125,-0.4132,-0.4139,-0.4145,-0.4151,-0.4158,-0.4164,-0.4177,-0.4181,-0.4181,-0.42,-0.4207,-0.4219,-0.4221,-0.4225,-0.4227,-0.4225,-0.4234,-0.4235,-0.4235,-0.4238,-0.4239,-0.4228,-0.4228,-0.4228,-0.4228,0,-0.4122,-0.413,-0.4135,-0.4146,-0.4153,-0.416,-0.4168,-0.4174,-0.4178,-0.4184,-0.4195,-0.4204,-0.4215,-0.4218,-0.4222,-0.4231,-0.4231,-0.4232,-0.4232,-0.4236,-0.4239,-0.424,-0.4227,-0.4227,-0.4227,-0.4227,0,0,-0.4121,-0.4137,-0.4139,-0.4145,-0.4157,-0.4163,-0.4171,-0.4182,-0.4187,-0.4195,-0.4203,-0.4215,-0.4217,-0.4223,-0.4228,-0.4234,-0.4239,-0.4235,-0.4235,-0.4235,-0.425,-0.4249,-0.425,-0.4242,-0.4242,-0.4242,-0.425,0,-0.4126,-0.414,-0.4147,-0.4159,-0.4167,-0.4173,-0.418,-0.4189,-0.4195,-0.4203,-0.421,-0.4219,-0.422,-0.4224,-0.423,-0.4237,-0.4242,-0.4237,-0.4249,-0.4249,-0.4246,-0.4252,-0.425,-0.4257,-0.4251,-0.4251,-0.4251,0,-0.4133,-0.4142,-0.4154,-0.4166,-0.417,-0.4176,-0.4186,-0.4194,-0.4204,-0.4208,-0.4216,-0.4221,-0.423,-0.423,-0.4243,-0.4239,-0.4245,-0.4249,-0.425,-0.4251,-0.425,-0.4253,-0.4259,-0.426,-0.4253,-0.4253,-0.4253,0,-0.4131,-0.4146,-0.4156,-0.4161,-0.4175,-0.4179,-0.4185,-0.4195,-0.4201,-0.4211,-0.4215,-0.4225,-0.4231,-0.4239,-0.4247,-0.4246,-0.426,-0.426,-0.4264,-0.4264,-0.4267,-0.4267,-0.4274,-0.427,-0.427,-0.427,-0.427,0,-0.4136,-0.4143,-0.4155,-0.4161,-0.417,-0.4178,-0.4187,-0.4193,-0.4202,-0.421,-0.4216,-0.4224,-0.4234,-0.4242,-0.4249,-0.4259,-0.4262,-0.4266,-0.4268,-0.4265,-0.4265,-0.4269,-0.4269,-0.4271,-0.4271,-0.4271,-0.4271,0,-0.4135,-0.4144,-0.4154,-0.4167,-0.417,-0.4176,-0.4187,-0.4194,-0.4201,-0.421,-0.4213,-0.4224,-0.4235,-0.4244,-0.4257,-0.4262,-0.4273,-0.4275,-0.4269,-0.427,-0.4274,-0.4273,-0.4284,-0.4286,-0.4281,-0.4281,-0.4281,0,-0.4137,-0.4143,-0.4157,-0.4162,-0.4168,-0.4177,-0.4183,-0.4192,-0.4199,-0.4211,-0.4216,-0.4227,-0.4236,-0.4253,-0.4263,-0.4274,-0.4276,-0.4279,-0.4278,-0.4275,-0.4276,-0.4276,-0.4277,-0.4279,-0.4279,-0.4279,-0.4279,0,-0.414,-0.4145,-0.4153,-0.4164,-0.4171,-0.418,-0.4189,-0.4193,-0.4204,-0.4211,-0.4222,-0.4229,-0.4244,-0.4255,-0.4267,-0.4274,-0.4278,-0.4279,-0.4281,-0.4279,-0.4275,-0.4277,-0.427,-0.4279,-0.4279,-0.4279,-0.4279,-0.4279,-0.4141,-0.4147,-0.4158,-0.4168,-0.4175,-0.4184,-0.419,-0.4198,-0.4208,-0.422,-0.4225,-0.4236,-0.4247,-0.4264,-0.4271,-0.428,-0.4281,-0.4283,-0.4284,-0.4284,-0.4284,-0.4274,-0.4282,-0.4282,-0.4283,-0.4283,-0.4283,0,-0.4145,-0.4152,-0.4161,-0.4174,-0.4182,-0.4185,-0.4196,-0.4202,-0.4212,-0.4222,-0.4231,-0.4244,-0.4255,-0.4266,-0.4277,-0.4283,-0.4285,-0.4286,-0.4285,-0.4287,-0.4282,-0.428,-0.4284,-0.4284,-0.4284,-0.4284,-0.4284,-0.4284,-0.4148,-0.4158,-0.4163,-0.4178,-0.4185,-0.4196,-0.4202,-0.421,-0.4218,-0.4232,-0.4241,-0.4248,-0.4258,-0.4271,-0.4282,-0.4285,-0.4289,-0.4289,-0.4292,-0.4288,-0.4287,-0.4287,-0.4285,-0.429,-0.429,-0.4296,-0.4296,-0.4296]}]]